This demonstration page uses our WeatherBlox Daily Observations layout. Learn more.

Left ArrowRight Arrow

Hourly Observations for January 3, 2015

Temp ( °F °C ) Dew Point ( °F °C ) Humidity (%) Winds ( mph kmh ) Pressure ( in mb ) Visibility ( mi km ) Precip ( " mm )
12:51 am 00:51 Clear 32 undefined 22 -5.6 66 66 NW 15 24 30.05 1018 10 16 N/A
1:51 am 01:51 Clear 32 undefined 21 -6.1 64 64 WNW 15 24 30.06 1018 10 16 N/A
2:51 am 02:51 Clear 30 -1.1 22 -5.6 72 72 NW 12 19 30.07 1018 10 16 N/A
3:51 am 03:51 Clear 32 undefined 21 -6.1 64 64 NNW 13 20 30.06 1018 10 16 N/A
4:51 am 04:51 Clear 27 -2.8 21 -6.1 78 78 WSW 8 13 30.07 1018 10 16 N/A
5:51 am 05:51 Clear 26 -3.3 21 -6.1 81 81 ESE 3 6 30.10 1019 10 16 N/A
6:51 am 06:51 Clear 25 -3.9 21 -6.1 85 85 SE 5 7 30.12 1020 10 16 N/A
7:51 am 07:51 Sunny 26 -3.3 22 -5.6 84 84 ESE 5 7 30.15 1021 10 16 N/A
8:51 am 08:51 Sunny 30 -1.1 23 -5 75 75 SSE 6 9 30.18 1022 10 16 N/A
9:51 am 09:51 Sunny 33 0.6 24 -4.4 70 70 N N/A 30.20 1023 10 16 N/A
10:51 am 10:51 Sunny 38 3.3 24 -4.4 57 57 W 5 7 30.19 1022 10 16 N/A
11:51 am 11:51 Sunny 44 6.7 23 -5 43 43 WNW 16 26 30.14 1021 10 16 N/A
12:51 pm 12:51 Sunny 46 7.8 22 -5.6 38 38 NW 18 30 30.11 1020 10 16 N/A
1:51 pm 13:51 Sunny 49 9.4 21 -6.1 33 33 NW 17 28 30.09 1019 10 16 N/A
2:51 pm 14:51 Sunny 49 9.4 22 -5.6 35 35 WNW 18 30 30.09 1019 10 16 N/A
3:51 pm 15:51 Sunny 49 9.4 22 -5.6 35 35 NW 17 28 30.11 1020 10 16 N/A
4:51 pm 16:51 Sunny 47 8.3 24 -4.4 41 41 NW 15 24 30.14 1021 10 16 N/A
5:51 pm 17:51 Clear 43 6.1 26 -3.3 51 51 NNW 13 20 30.17 1022 10 16 N/A
6:51 pm 18:51 Clear 41 5 27 -2.8 57 57 WNW 10 17 30.21 1023 10 16 N/A
7:51 pm 19:51 Clear 39 3.9 26 -3.3 60 60 SW 7 11 30.23 1024 10 16 N/A
8:51 pm 20:51 Clear 37 2.8 25 -3.9 62 62 W 5 7 30.25 1025 10 16 N/A
9:51 pm 21:51 Clear 31 -0.6 26 -3.3 82 82 ESE 3 6 30.28 1026 10 16 N/A
10:51 pm 22:51 Clear 31 -0.6 26 -3.3 82 82 E 6 9 30.29 1026 10 16 N/A
11:51 pm 23:51 Clear 30 -1.1 26 -3.3 85 85 E 3 6 30.30 1026 10 16 N/A

Powered by AerisWeather